Time,TemperatureF,DewpointF,PressureIn,WindDirection,WindDirectionDegrees,WindSpeedMPH,WindSpeedGustMPH,Humidity,HourlyPrecipIn,Conditions,Clouds,dailyrainin,SoftwareType,DateUTC
2013-04-05 20:16:00,78.2,17.1,29.80,SW,229,1.0,1.0,10,0.00,,,0.00,Wunderground v.1.15,2013-04-06 02:16:00,
2013-04-05 20:18:00,78.0,17.0,29.80,SW,229,0.0,1.0,10,0.00,,,0.00,Wunderground v.1.15,2013-04-06 02:18:00,
2013-04-05 20:22:00,77.8,16.8,29.80,SW,229,0.0,1.0,10,0.00,,,0.00,Wunderground v.1.15,2013-04-06 02:22:00,
2013-04-05 20:28:00,77.3,16.4,29.81,SW,229,0.0,0.0,10,0.00,,,0.00,Wunderground v.1.15,2013-04-06 02:28:00,
2013-04-05 20:34:00,76.8,18.3,29.81,SW,229,0.0,0.0,11,0.00,,,0.00,Wunderground v.1.15,2013-04-06 02:34:00,
2013-04-05 20:39:00,76.4,18.0,29.81,SW,229,0.0,0.0,11,0.00,,,0.00,Wunderground v.1.15,2013-04-06 02:39:00,
2013-04-05 20:44:00,75.8,17.5,29.81,SW,229,0.0,0.0,11,0.00,,,0.00,Wunderground v.1.15,2013-04-06 02:44:00,
2013-04-05 20:50:00,75.2,17.0,29.81,SW,229,0.0,0.0,11,0.00,,,0.00,Wunderground v.1.15,2013-04-06 02:50:00,
2013-04-05 20:55:00,74.7,16.6,29.81,SW,229,0.0,0.0,11,0.00,,,0.00,Wunderground v.1.15,2013-04-06 02:55:00,
2013-04-05 21:01:00,73.8,19.8,29.82,SW,229,0.0,0.0,13,0.00,,,0.00,Wunderground v.1.15,2013-04-06 03:01:00,
2013-04-05 21:07:00,72.3,20.4,29.82,SW,229,0.0,0.0,14,0.00,,,0.00,Wunderground v.1.15,2013-04-06 03:07:00,
2013-04-05 21:13:00,70.9,19.3,29.82,SW,229,0.0,0.0,14,0.00,,,0.00,Wunderground v.1.15,2013-04-06 03:13:00,
2013-04-05 21:18:00,70.4,22.0,29.82,SW,229,0.0,0.0,16,0.00,,,0.00,Wunderground v.1.15,2013-04-06 03:18:00,
2013-04-05 21:24:00,69.8,20.0,29.82,SW,229,0.0,0.0,15,0.00,,,0.00,Wunderground v.1.15,2013-04-06 03:24:00,
2013-04-05 21:30:00,69.2,17.9,29.83,SW,229,0.0,0.0,14,0.00,,,0.00,Wunderground v.1.15,2013-04-06 03:30:00,
2013-04-05 21:35:00,68.7,22.1,29.83,SW,229,0.0,0.0,17,0.00,,,0.00,Wunderground v.1.15,2013-04-06 03:35:00,
2013-04-05 21:40:00,68.4,20.4,29.84,SW,229,0.0,0.0,16,0.00,,,0.00,Wunderground v.1.15,2013-04-06 03:40:00,
2013-04-05 21:45:00,68.1,18.7,29.84,SW,229,0.0,0.0,15,0.00,,,0.00,Wunderground v.1.15,2013-04-06 03:45:00,
2013-04-05 21:53:00,67.9,20.0,29.84,SW,229,0.0,0.0,16,0.00,,,0.00,Wunderground v.1.15,2013-04-06 03:53:00,
2013-04-05 21:58:00,67.8,21.4,29.84,SW,229,0.0,0.0,17,0.00,,,0.00,Wunderground v.1.15,2013-04-06 03:58:00,
2013-04-05 22:00:00,67.9,21.4,29.84,SW,230,0.0,0.0,17,0.00,,,0.00,Wunderground v.1.15,2013-04-06 04:00:00,
2013-04-05 22:01:00,67.9,21.4,29.85,SW,231,0.0,0.0,17,0.00,,,0.00,Wunderground v.1.15,2013-04-06 04:01:00,
2013-04-05 22:02:00,68.0,20.1,29.85,WSW,257,0.0,0.0,16,0.00,,,0.00,Wunderground v.1.15,2013-04-06 04:02:00,
2013-04-05 22:03:00,68.0,20.1,29.85,West,259,0.0,0.0,16,0.00,,,0.00,Wunderground v.1.15,2013-04-06 04:03:00,
2013-04-05 22:08:00,68.5,19.0,29.85,West,261,1.0,5.0,15,0.00,,,0.00,Wunderground v.1.15,2013-04-06 04:08:00,
2013-04-05 22:14:00,68.8,19.2,29.85,West,274,3.0,6.0,15,0.00,,,0.00,Wunderground v.1.15,2013-04-06 04:14:00,
2013-04-05 22:19:00,68.8,19.2,29.85,West,270,3.0,6.0,15,0.00,,,0.00,Wunderground v.1.15,2013-04-06 04:19:00,
2013-04-05 22:24:00,68.9,19.3,29.85,West,273,3.0,6.0,15,0.00,,,0.00,Wunderground v.1.15,2013-04-06 04:24:00,
2013-04-05 22:30:00,69.0,19.4,29.86,West,267,5.0,6.0,15,0.00,,,0.00,Wunderground v.1.15,2013-04-06 04:30:00,
2013-04-05 22:36:00,68.8,19.2,29.86,West,277,6.0,7.0,15,0.00,,,0.00,Wunderground v.1.15,2013-04-06 04:36:00,
2013-04-05 22:41:00,68.9,19.3,29.86,West,275,5.0,5.0,15,0.00,,,0.00,Wunderground v.1.15,2013-04-06 04:41:00,
2013-04-05 22:47:00,68.8,20.7,29.86,West,275,1.0,5.0,16,0.00,,,0.00,Wunderground v.1.15,2013-04-06 04:47:00,
2013-04-05 22:53:00,67.5,23.7,29.86,West,275,0.0,0.0,19,0.00,,,0.00,Wunderground v.1.15,2013-04-06 04:53:00,
2013-04-05 22:58:00,65.9,23.7,29.86,West,275,0.0,0.0,20,0.00,,,0.00,Wunderground v.1.15,2013-04-06 04:58:00,
2013-04-05 23:04:00,64.8,22.7,29.86,West,275,0.0,0.0,20,0.00,,,0.00,Wunderground v.1.15,2013-04-06 05:04:00,
2013-04-05 23:09:00,64.1,22.2,29.86,West,275,0.0,0.0,20,0.00,,,0.00,Wunderground v.1.15,2013-04-06 05:09:00,
2013-04-05 23:15:00,64.5,22.5,29.86,NNW,346,0.0,0.0,20,0.00,,,0.00,Wunderground v.1.15,2013-04-06 05:15:00,
2013-04-05 23:20:00,64.5,22.5,29.86,North,5,0.0,0.0,20,0.00,,,0.00,Wunderground v.1.15,2013-04-06 05:20:00,
2013-04-05 23:25:00,64.7,23.8,29.86,North,5,0.0,0.0,21,0.00,,,0.00,Wunderground v.1.15,2013-04-06 05:25:00,
2013-04-05 23:31:00,64.7,22.7,29.87,North,5,0.0,0.0,20,0.00,,,0.00,Wunderground v.1.15,2013-04-06 05:31:00,
2013-04-05 23:36:00,64.3,22.3,29.87,North,5,0.0,0.0,20,0.00,,,0.00,Wunderground v.1.15,2013-04-06 05:36:00,
2013-04-05 23:42:00,64.2,21.0,29.87,North,5,0.0,0.0,19,0.00,,,0.00,Wunderground v.1.15,2013-04-06 05:42:00,
2013-04-05 23:48:00,64.6,21.4,29.87,North,5,0.0,0.0,19,0.00,,,0.00,Wunderground v.1.15,2013-04-06 05:48:00,
2013-04-05 23:53:00,64.9,21.6,29.87,North,5,0.0,0.0,19,0.00,,,0.00,Wunderground v.1.15,2013-04-06 05:53:00,
2013-04-05 23:59:00,65.2,23.1,29.88,North,5,0.0,0.0,20,0.00,,,0.00,Wunderground v.1.15,2013-04-06 05:59:00,